This demonstration page uses our WeatherBlox Daily Observations layout. Learn more.

Left ArrowRight Arrow

41.55636, -103.73856

Hourly Observations for October 21, 2021

Temp ( °F °C ) Dew Point ( °F °C ) Humidity (%) Winds ( mph kmh ) Pressure ( in mb ) Visibility ( mi km ) Precip ( " mm )
12:58 am 00:58 Mostly Cloudy 39 3.7 33 0.5 80 80 SW 9 15 30.23 1024 10 16 0.00 0.00
1:58 am 01:58 Partly Cloudy 39 3.8 32 0 77 77 WSW 7 11 30.22 1023 10 16 0.00 0.00
2:58 am 02:58 Clear 38 3.2 32 0 80 80 SW 12 19 30.23 1024 10 16 0.00 0.00
3:58 am 03:58 Clear 39 3.9 32 -0.2 75 75 SW 8 13 30.21 1023 10 16 0.00 0.00
4:58 am 04:58 Clear 38 3.6 31 -0.4 75 75 SW 7 11 30.20 1023 10 16 0.00 0.00
5:58 am 05:58 Clear 39 3.7 31 -0.6 74 74 SSW 8 13 30.22 1023 10 16 0.00 0.00
6:58 am 06:58 Clear 37 3 30 -0.9 76 76 W 14 22 30.24 1024 10 16 0.00 0.00
7:58 am 07:58 Sunny 41 5.2 33 0.3 71 71 WNW 13 20 30.26 1025 10 16 0.00 0.00
8:58 am 08:58 Sunny 49 9.5 34 0.9 55 55 WNW 13 20 30.25 1024 10 16 0.00 0.00
9:58 am 09:58 Sunny 51 10.6 35 1.5 54 54 W 12 19 30.26 1025 10 16 0.00 0.00
10:58 am 10:58 Sunny 55 12.8 35 1.5 46 46 WNW 9 15 30.25 1024 10 16 0.00 0.00
11:58 am 11:58 Sunny 60 15.5 34 0.9 37 37 NW 10 17 30.22 1024 10 16 0.00 0.00
12:58 pm 12:58 Sunny 62 16.9 30 -0.9 30 30 NW 14 22 30.19 1023 10 16 0.00 0.00
1:58 pm 13:58 Sunny 64 17.9 32 0 30 30 NW 15 24 30.17 1022 10 16 0.00 0.00
2:58 pm 14:58 Sunny 64 17.6 30 -0.9 29 29 NW 16 26 30.16 1022 10 16 0.00 0.00
3:58 pm 15:58 Sunny 64 17.5 31 -0.7 29 29 NW 15 24 30.16 1022 10 16 0.00 0.00
4:58 pm 16:58 Sunny 63 17.1 31 -0.8 30 30 NW 9 15 30.16 1021 10 16 0.00 0.00
5:58 pm 17:58 Sunny 59 14.9 31 -0.4 35 35 NW 6 9 30.17 1022 10 16 0.00 0.00
6:58 pm 18:58 Clear 55 12.6 32 -0.1 42 42 S 3 6 30.19 1022 10 16 0.00 0.00
7:58 pm 19:58 Clear 51 10.3 32 0 49 49 Calm 30.18 1022 10 16 0.00 0.00
8:58 pm 20:58 Clear 49 9.2 33 0.7 56 56 SSW 8 13 30.16 1022 10 16 0.00 0.00
9:58 pm 21:58 Clear 48 9.1 33 0.8 56 56 SW 8 13 30.15 1021 10 16 0.00 0.00
10:58 pm 22:58 Clear 47 8.4 34 0.9 60 60 SW 9 15 30.14 1021 10 16 0.00 0.00
11:58 pm 23:58 Clear 46 7.6 31 -0.5 57 57 WSW 5 7 30.10 1019 10 16 0.00 0.00

Powered by AerisWeather